Flag for Greenland Weather past 2 weeks in Danmarkshavn, Greenland

Now
43 °F

Overcast.


Feels Like: 38 °F
Forecast: 38 / 42 °F
Wind: 9 mph from Northwest

Location: Danmarkshavn

Current Time: Aug 2, 2014 at 4:42:18 AM

Latest Report: Aug 2, 2014 at 3:00 AM


Visibility: 31 mi

Pressure: 29.90 "Hg

Humidity: 81%

Dew point: 38 °F

Location of DanmarkshavnLocation

Historic Weather in Danmarkshavn — Graph

°F

Danmarkshavn temperature yesterday

Maximum temperature yesterday: 46 °F (at 8:00 AM)
Minimum temperature yesterday: 41 °F (at 4:00 AM)
Average temperature yesterday: 44 °F

Past Weeks' High & Low Weather Summary

 TemperatureHumidityPressure
High58 °F (Jul 21, 3:00 PM)100% (Jul 18, 10:00 PM)30.13 "Hg (Jul 18, 10:00 PM)
Low34 °F (Jul 29, 7:00 AM)41% (Jul 24, 1:00 PM)29.54 "Hg (Jul 23, 9:00 PM)
Average45 °F72%29.89 "Hg
* Reported Jul 18 3:00 AM — Aug 2 3:00 AM, Danmarkshavn, Weather by CustomWeather, © 2014

Note: Actual official high and low records may vary slightly from our data, if they occured in-between our weather recording intervals... More about our weather records

Advertising

Danmarkshavn weather history for previous 24 hours

 ConditionsComfort  
Time TempWeatherWind HumidityBarometerVisibility
3:00 AM
Aug 2
43 °FOvercast.9 mph81%29.90 "Hg31 mi
2:00 AM46 °FOvercast.9 mph76%29.91 "Hg31 mi
1:00 AM44 °FPartly sunny.9 mph78%29.91 "Hg31 mi
12:00 AM44 °FScattered clouds.8 mph77%29.91 "Hg31 mi
11:00 PM
Aug 1
46 °FPartly sunny.7 mph75%29.91 "Hg31 mi
10:00 PM45 °FOvercast.7 mph76%29.92 "Hg28 mi
9:00 PM44 °FScattered clouds.9 mph78%29.93 "Hg31 mi
8:00 PM45 °FOvercast.10 mph77%29.94 "Hg31 mi
7:00 PM45 °FOvercast.9 mph79%29.94 "Hg28 mi
6:00 PM45 °FOvercast.10 mph81%29.95 "Hg31 mi
5:00 PM46 °FOvercast.13 mph76%29.96 "Hg31 mi
4:00 PM44 °FOvercast.10 mph76%29.97 "Hg31 mi
3:00 PM43 °FOvercast.10 mph76%29.98 "Hg31 mi
2:00 PM45 °FOvercast.10 mph77%29.99 "Hg22 mi
1:00 PM43 °FOvercast.No wind80%30.00 "Hg31 mi
12:00 PM42 °FDrizzle. Overcast.3 mph85%30.00 "Hg25 mi
11:00 AM43 °FLight rain. Overcast.3 mph80%30.01 "Hg7 mi
10:00 AM43 °FDrizzle. Overcast.12 mph78%30.00 "Hg12 mi
9:00 AM44 °FOvercast.15 mph72%29.98 "Hg31 mi
8:00 AM46 °FOvercast.9 mph72%29.96 "Hg31 mi
7:00 AM45 °FOvercast.8 mph68%29.95 "Hg31 mi
6:00 AM42 °FOvercast.10 mph74%29.93 "Hg31 mi
5:00 AM42 °FOvercast.10 mph69%29.93 "Hg31 mi
4:00 AM41 °FOvercast.10 mph72%29.92 "Hg31 mi
Weather by CustomWeather, © 2014

See weather overviewHow to use our weather pages